User: anonymous   Login
Location: Observatoire
(46.1952°N, 5.3391°E)
Time: 20:15:04
(UTC+02:00)
Language:

NOAA 15 - Orbit

View from above orbital plane
View from above orbital plane
View from above satellite
View from above satellite

Ground track
Ground track

The orbit data is extracted from the following two-line orbital elements,

1 25338U 98030A   24113.40699974  .00000727  00000-0  31897-3 0  9997
2 25338  98.5738 141.6871 0011422 124.8990 235.3266 14.26544522349484
Epoch (UTC): 22 April 2024 09:46:04
Eccentricity: 0.0011422
inclination: 98.5738°
perigee height: 795 km
apogee height: 811 km
right ascension of ascending node: 141.6871°
argument of perigee: 124.8990°
revolutions per day: 14.26544522
mean anomaly at epoch: 235.3266°
orbit number at epoch: 34948

The dashed part of the orbit path shows where the satellite is in the earth's shadow,  

DLR